Regional Weather Roundup
Issued by NWS

Home | Current Version | Previous Version | Text Only | Print | Product List | Glossary On
Versions: 1 2 3 4 5 6 7 8 9 10 11 12 13 14 15 16 17 18 19 20 21 22 23 24 25 26 27 28 29 30 31 32 33 34 35 36 37 38 39 40 41 42 43 44 45 46 47 48 49 50
466
ASUS43 KMPX 221610
RWRMN
WEATHER ROUNDUP FOR MINNESOTA
NATIONAL WEATHER SERVICE TWIN CITIES/CHANHASSEN MN
1100 AM CDT WED MAR 22 2017


NOTE: "FAIR" INDICATES FEW OR NO CLOUDS BELOW 12,000 FEET WITH NO
SIGNIFICANT WEATHER AND/OR OBSTRUCTIONS TO VISIBILITY. N/A MEANS
CURRENT SKY AND/OR WEATHER CONDITIONS ARE NOT AVAILABLE.

MNZ060>063-068>070-221700-
   Twin Cities Metro

CITY           SKY/WX    TMP DP  RH WIND       PRES   REMARKS
TWIN CITIES    MOSUNNY   31   7  36 SE14      30.55S WCI  21
ST PAUL        SUNNY     31   8  38 SE14      30.57F WCI  21
CRYSTAL        SUNNY     30   5  34 SE16      30.53F WCI  19
BLAINE         MOSUNNY   32   9  37 SE14      30.54S WCI  22
LAKEVILLE      SUNNY     28  10  47 SE15      30.53S WCI  17
EDEN PRAIRIE   SUNNY     32   6  33 SE15      30.53R WCI  22
SOUTH ST PAUL  SUNNY     31   6  35 SE7G17    30.55F WCI  24
LAKE ELMO      FAIR      32  10  40 SE8       30.56F WCI  25
$$
MNZ001>005-007-008-013>017-022>024-027-028-221700-
   Northwest Minnesota

CITY           SKY/WX    TMP DP  RH WIND       PRES   REMARKS
BEMIDJI        SUNNY     26   4  39 SE18      30.43F WCI  12
HALLOCK        CLOUDY    27  14  59 S18       30.38F WCI  13
ROSEAU         MOSUNNY   27   9  46 S12       30.43S WCI  16
WARROAD        MOSUNNY   25   7  46 SE15      30.44F WCI  12
THIEF RVR FALL CLOUDY    25   8  48 S15       30.41F WCI  13
CROOKSTON      CLOUDY    27   9  46 S16       30.41S WCI  14
FOSSTON        PTSUNNY   27   9  46 SE12      30.40F WCI  16
DETROIT LAKES  MOSUNNY   28   9  43 S17G24    30.41R WCI  16
MOORHEAD       CLOUDY    27  10  50 S21G30    30.40F WCI  13
PARK RAPIDS    SUNNY     26   4  38 S15       30.43F WCI  14
MAHNOMEN       CLOUDY    26   6  42 SE13G18   30.40S WCI  15
$$
MNZ006-009>011-018-025>026-221700-
   North Central Minnesota

CITY           SKY/WX    TMP DP  RH WIND       PRES   REMARKS
BAUDETTE       CLOUDY    24   3  40 S14       30.46F WCI  12
FLAG ISLAND    CLOUDY    18   7  62 S16       30.46S WCI   3
INTL FALLS     MOSUNNY   22   1  40 SE8       30.50F WCI  12
WASKISH        MOSUNNY   27   3  36 SE13      30.47S WCI  16
BIG FORK       MOSUNNY   27   5  39 S9        30.49S WCI  17
LONGVILLE      SUNNY     27   3  36 S15       30.47F WCI  15
GRAND RAPIDS   CLOUDY    25   8  48 S13       30.51F WCI  14
CRANE LAKE     SUNNY     21  -6  30 S5        30.54F WCI  15
ORR            CLOUDY    21  -4  33 CALM      30.48S
COOK           SUNNY     21  -2  35 S7        30.51S WCI  13
WALKER         FAIR      25   4  39 SE14      30.46S WCI  14
$$
MNZ012-019>021-037-221700-
   Northeast Minnesota

CITY           SKY/WX    TMP DP  RH WIND       PRES   REMARKS
DULUTH         SUNNY     24   6  46 S7        30.52S WCI  16
ELY            SUNNY     21   1  42 SW3       30.51F
HIBBING        CLOUDY    23   7  50 SE9       30.50F WCI  13
EVELETH        SUNNY     25  -1  32 S9        30.52S WCI  16
DULUTH HARBOR  SUNNY     28  10  47 CALM      30.59S
TWO HARBORS    SUNNY     28  12  50 E8        30.54S WCI  20
SILVER BAY     MOSUNNY   27  12  54 SE6       30.54F WCI  20
GRAND MARAIS     N/A     23   8  52 CALM      30.62S
G MARAIS ARPRT SUNNY     18  -2  41 SE6       30.51S WCI   9
$$
MNZ029>031-032-039>041-046>048-054>057-064-221700-
   West Central Minnesota

CITY           SKY/WX    TMP DP  RH WIND       PRES   REMARKS
FERGUS FALLS   CLOUDY    27   9  46 S24       30.46S WCI  12
WHEATON        CLOUDY    27  10  50 SE25      30.41F WCI  11
MORRIS         CLOUDY    28  12  50 SE25      30.42F WCI  14
ALEXANDRIA     PTSUNNY   29   9  43 S18G28    30.44F WCI  16
ELBOW LAKE     CLOUDY    27   9  47 SE25G31   30.43S WCI  12
WADENA         SUNNY     27   9  46 SE17      30.43S WCI  14
GLENWOOD       PTSUNNY   28  10  47 SE22      30.45F WCI  15
APPLETON       CLOUDY    28  12  50 SE12      30.44F WCI  18
BENSON         CLOUDY    30   9  40 S15G22    30.47S WCI  19
ORTONVILLE     CLOUDY    27  16  63 S13G20    30.42S WCI  16
MADISON        CLOUDY    28  18  64 SE20      30.43F WCI  15
WILLMAR        FAIR      30  14  51 SE17G23   30.48F WCI  18
$$
MNZ033>034-036-042>043-049>051-058-059-221700-
   Central Minnesota

CITY           SKY/WX    TMP DP  RH WIND       PRES   REMARKS
ST CLOUD       SUNNY     28   9  44 SE13G23   30.51S WCI  17
SAUK CENTRE    FAIR      29  10  44 SE17      30.47F WCI  16
PAYNESVILLE      N/A     29   8  41 SE14      30.49F WCI  19
AITKIN         SUNNY     30   0  27 SE15      30.49S WCI  19
PINE RIVER     SUNNY     27   9  46 S15       30.50S WCI  15
BRAINERD       SUNNY     27   5  39 S10G20    30.48F WCI  17
STAPLES        SUNNY     27   7  43 S13G23    30.45F WCI  16
LONG PRAIRIE   FAIR      30  10  43 E16       30.46F WCI  19
LITTLE FALLS   SUNNY     30   3  31 SE14      30.50S WCI  20
LITCHFIELD     SUNNY     30  10  43 SE12G18   30.51S WCI  21
BUFFALO        SUNNY     30   5  34 SE10G17   30.54R WCI  21
MAPLE LAKE     SUNNY     31  11  43 SE12G17   30.53R WCI  22
HUTCHINSON     MOSUNNY   31  13  46 SE13      30.52S WCI  21
$$
MNZ037-044-045-052-053-221700-
   East Central Minnesota

CITY           SKY/WX    TMP DP  RH WIND       PRES   REMARKS
PRINCETON      SUNNY     30   7  37 SE15      30.53S WCI  19
MORA           SUNNY     30   9  40 S12       30.55F WCI  21
CAMBRIDGE      SUNNY     30  12  47 SE12G17   30.52F WCI  21
RUSH CITY      SUNNY     30   7  38 SE9       30.55F WCI  21
MOOSE LAKE     SUNNY     30   5  34 S6        30.52S WCI  24
HINCKLEY       FAIR      30  10  43 S10       30.55S WCI  21
CLOQUET        SUNNY     27   1  33 S8        30.52S WCI  18
MCGREGOR       SUNNY     28   7  40 SE8       30.51F WCI  20
$$
MNZ071>073-080-081-089-090-097-098-221700-
   Southwest Minnesota

CITY           SKY/WX    TMP DP  RH WIND       PRES   REMARKS
MONTEVIDEO     CLOUDY    27  16  63 S15G21    30.47F WCI  15
GRANITE FALLS  CLOUDY    29  18  61 SE18      30.48S WCI  17
CANBY          CLOUDY    30  19  64 SE14      30.43S WCI  19
MARSHALL       CLOUDY    29  17  61 S21       30.43F WCI  16
REDWOOD FALLS  CLOUDY    29  13  51 SE14      30.48S WCI  18
OLIVIA         CLOUDY    30  14  51 SE16      30.48S WCI  19
PIPESTONE      CLOUDY    28  12  50 S16G22    30.39S WCI  17
WINDOM         CLOUDY    28  18  64 SE18      30.44F WCI  16
WORTHINGTON    CLOUDY    29  19  66 SE14      30.44R WCI  18
JACKSON        CLOUDY    30  19  64 SE17      30.46S WCI  18
TRACY          CLOUDY    30  19  63 S15       30.44S WCI  19
SLAYTON        CLOUDY    28  18  66 SE21      30.42S WCI  15
$$
MNZ065>067-074>077-082>085-091>093-221700-
   South Central Minnesota

CITY           SKY/WX    TMP DP  RH WIND       PRES   REMARKS
MANKATO        SUNNY     31  15  52 SE17      30.51S WCI  19
NEW ULM        PTSUNNY   30  14  51 SE15      30.50S WCI  19
ST JAMES       PTSUNNY   28  19  69 SE15      30.50S WCI  17
FAIRMONT       CLOUDY    30  19  63 S17       30.48S WCI  18
GLENCOE        SUNNY     32  13  45 SE14G20   30.52R WCI  22
FARIBAULT      SUNNY     30  10  43 SE14      30.53S WCI  20
OWATONNA       SUNNY     30  10  43 SE16      30.52R WCI  19
WASECA         SUNNY     32  18  55 SE13      30.53S WCI  22
ALBERT LEA     SUNNY     28  14  54 SE17      30.50S WCI  16
$$
MNZ078>079-086>088-094>096-221700-
   Southeast Minnesota

CITY           SKY/WX    TMP DP  RH WIND       PRES   REMARKS
ROCHESTER      SUNNY     29  10  45 SE15      30.52F WCI  18
RED WING       SUNNY     30   3  31 SE13      30.56F WCI  20
STANTON        SUNNY     31  10  41 SE10      30.53S WCI  22
DODGE CENTER   SUNNY     28  12  50 SE16G23   30.51S WCI  17
WINONA         SUNNY     32  10  40 E10       30.59F WCI  24
AUSTIN         SUNNY     28  12  50 SE10      30.51S WCI  19
PRESTON        SUNNY     28   7  41 SE9G17    30.54S WCI  19
$$
ABBREVIATIONS USED IN REMARKS
   TC - TEMPERATURES IN CELSIUS
  WCI - WIND CHILL INDEX
   HX - HEAT INDEX
  VSB - VISIBILITY
$$




USA.gov is the U.S. government's official web portal to all federal, state and local government web resources and services.